Location: B�rgermoos
(47.6500°N, 9.0667°E)
Time: 16:33:48
(UTC+00:00)

Explorer 7 - Visible Passes

Search period start: 28 July 2021 00:00
Search period end: 07 August 2021 00:00
Orbit: 484 x 676 km, 50.3° (Epoch: 27 July)

Date Brightness Start Highest point End Pass type
(mag) Time Alt. Az. Time Alt. Az. Time Alt. Az.
04 Aug 8.9 02:12:09 11° SSE 02:13:35 13° SE 02:15:25 10° ESE visible
05 Aug 8.4 02:16:18 17° SSE 02:17:38 20° SE 02:20:30 10° E visible
06 Aug 7.8 02:20:23 23° S 02:21:46 30° SE 02:25:09 10° E visible
